Weather History for Lake Charles Regional, LA

Change the Weather History Date:

Friday, December 7, 2012

  Actual Average Record
Temperature  
Mean Temperature 65 °F 55 °F  
Max Temperature 76 °F 65 °F 82 °F (1978)
Min Temperature 53 °F 45 °F 21 °F (1950)
Degree Days  
Heating Degree Days 0 10  
Month to date heating degree days 2 68  
Since 1 July heating degree days 208 275  
Cooling Degree Days 0 1  
Month to date cooling degree days 21 7  
Year to date cooling degree days 3205 2796  
Growing Degree Days 14 (Base 50)    
Moisture  
Dew Point 57 °F    
Average Humidity 84    
Maximum Humidity 100    
Minimum Humidity 68    
Precipitation  
Precipitation 0.00 in 0.14 in 2.77 in (1927)
Month to date precipitation 0.93 1.03  
Year to date precipitation 68.12 53.84  
Snow  
Snow 0.00 in 0.00 in 0.00 in ()
Month to date snowfall 0.0 0.0  
Since 1 July snowfall 0.0 0.0  
Snow Depth 0.00 in    
Sea Level Pressure  
Sea Level Pressure 29.93 in    
Wind  
Wind Speed 5 mph (SE)    
Max Wind Speed 13 mph    
Max Gust Speed 16 mph    
Visibility 5 miles    
Events Fog    
T = Trace of Precipitation, MM = Missing Value Source: NWS Daily Summary

Daily Weather History Graph

Daily Weather History Graph

Search for Another Location

Airport:

Trip Planner

Search our weather history database for the weather conditions in past years. The results will help you decide how hot, cold, wet, or windy it might be!

Date:

Astronomy

Dec. 07, 2012 Rise Set
Actual Time 6:56 AM CST 5:12 PM CST
Civil Twilight 6:30 AM CST 5:39 PM CST
Nautical Twilight 6:00 AM CST 6:08 PM CST
Astronomical Twilight 5:31 AM CST 6:37 PM CST
Moon 12:39 AM CST (12/7) 12:49 PM CST (12/7)
Length of Visible Light 11h 08m
Length of Day
10h 16m
Last Quarter, 38% of the Moon is Illuminated
Dec 7
Last Quarter
Dec 13
New
Dec 19
First Quarter
Dec 28
Full
Jan 4
Last Quarter

Hourly Weather History & Observations

Time (CST) Temp. Dew Point Humidity Pressure Visibility Wind Dir Wind Speed Gust Speed Precip Events Conditions
12:00 AM 53.6 °F 53.6 °F 100% 29.93 in 0.2 mi Calm Calm - N/A Fog Fog
12:53 AM 53.1 °F 52.0 °F 96% 29.95 in 0.2 mi Calm Calm - N/A Fog Fog
1:01 AM 53.6 °F 51.8 °F 94% 29.93 in 0.5 mi Calm Calm - N/A Fog Fog
1:20 AM 53.6 °F 51.8 °F 94% 29.93 in 0.5 mi Calm Calm - N/A Fog Fog
1:32 AM 53.6 °F 53.6 °F 100% 29.93 in 2.0 mi Calm Calm - N/A   Overcast
1:40 AM 53.6 °F 53.6 °F 100% 29.92 in 8.0 mi Calm Calm - N/A   Overcast
1:53 AM 54.0 °F 53.1 °F 97% 29.95 in 10.0 mi Calm Calm - N/A   Overcast
2:08 AM 53.6 °F 51.8 °F 94% 29.92 in 1.8 mi Calm Calm - N/A   Overcast
2:19 AM 53.6 °F 51.8 °F 94% 29.92 in 0.8 mi Calm Calm - N/A   Overcast
2:37 AM 53.6 °F 51.8 °F 94% 29.92 in 0.2 mi Calm Calm - N/A Fog Fog
2:51 AM 53.6 °F 53.6 °F 100% 29.92 in 1.0 mi Calm Calm - N/A   Mist
2:53 AM 54.0 °F 52.0 °F 93% 29.94 in 1.8 mi Calm Calm - N/A   Overcast
2:55 AM 53.6 °F 51.8 °F 94% 29.92 in 3.0 mi Calm Calm - N/A   Overcast
2:59 AM 53.6 °F 51.8 °F 94% 29.92 in 1.8 mi ENE 3.5 mph - N/A   Overcast
3:08 AM 53.6 °F 51.8 °F 94% 29.92 in 0.5 mi Calm Calm - N/A Fog Fog
3:43 AM 53.6 °F 51.8 °F 94% 29.92 in 2.0 mi Calm Calm - N/A   Overcast
3:51 AM 53.6 °F 51.8 °F 94% 29.92 in 4.0 mi Calm Calm - N/A   Overcast
3:53 AM 53.1 °F 52.0 °F 96% 29.94 in 4.0 mi Calm Calm - N/A   Overcast
4:10 AM 53.6 °F 51.8 °F 94% 29.92 in 1.8 mi Calm Calm - N/A   Overcast
4:23 AM 53.6 °F 51.8 °F 94% 29.91 in 0.2 mi Calm Calm - N/A Fog Fog
4:53 AM 53.1 °F 52.0 °F 96% 29.94 in 0.2 mi Calm Calm - N/A Fog Fog
5:07 AM 53.6 °F 51.8 °F 94% 29.91 in 0.5 mi Calm Calm - N/A Fog Fog
5:22 AM 53.6 °F 51.8 °F 94% 29.91 in 0.2 mi Calm Calm - N/A Fog Fog
5:39 AM 53.6 °F 51.8 °F 94% 29.92 in 0.5 mi Calm Calm - N/A Fog Fog
5:51 AM 53.6 °F 53.6 °F 100% 29.92 in 0.2 mi Calm Calm - N/A Fog Fog
5:53 AM 54.0 °F 53.1 °F 97% 29.94 in 0.2 mi Calm Calm - N/A Fog Fog
6:53 AM 54.0 °F 53.1 °F 97% 29.96 in 0.2 mi East 4.6 mph - N/A Fog Fog
7:53 AM 57.0 °F 55.0 °F 93% 29.96 in 0.2 mi ESE 4.6 mph - N/A Fog Fog
8:13 AM 57.2 °F 57.2 °F 100% 29.94 in 0.8 mi East 3.5 mph - N/A   Mist
8:22 AM 59.0 °F 57.2 °F 94% 29.94 in 1.2 mi ESE 5.8 mph - N/A   Overcast
8:30 AM 60.8 °F 59.0 °F 94% 29.94 in 3.0 mi ESE 4.6 mph - N/A   Mostly Cloudy
8:42 AM 60.8 °F 59.0 °F 94% 29.95 in 10.0 mi SE 6.9 mph - N/A   Scattered Clouds
8:53 AM 61.0 °F 60.1 °F 97% 29.97 in 10.0 mi ESE 5.8 mph - N/A   Clear
9:53 AM 69.1 °F 62.1 °F 78% 29.99 in 10.0 mi SSE 9.2 mph - N/A   Clear
10:53 AM 73.0 °F 62.1 °F 68% 29.97 in 10.0 mi SSE 9.2 mph - N/A   Clear
11:53 AM 73.0 °F 62.1 °F 68% 29.95 in 10.0 mi SSE 9.2 mph - N/A   Scattered Clouds
12:15 PM 75.2 °F 62.6 °F 65% 29.91 in 10.0 mi South 9.2 mph - N/A   Overcast
12:28 PM 73.4 °F 62.6 °F 69% 29.90 in 10.0 mi South 9.2 mph - N/A   Mostly Cloudy
12:53 PM 73.9 °F 62.1 °F 66% 29.91 in 10.0 mi South 5.8 mph 16.1 mph N/A   Mostly Cloudy
1:00 PM 73.4 °F 62.6 °F 69% 29.89 in 10.0 mi South 6.9 mph - N/A   Mostly Cloudy
1:53 PM 73.9 °F 62.1 °F 66% 29.89 in 10.0 mi SSE 9.2 mph - N/A   Mostly Cloudy
2:00 PM 75.2 °F 62.6 °F 65% 29.87 in 10.0 mi South 8.1 mph - N/A   Mostly Cloudy
2:53 PM 73.9 °F 62.1 °F 66% 29.89 in 10.0 mi South 6.9 mph - N/A   Scattered Clouds
3:53 PM 73.0 °F 62.1 °F 68% 29.90 in 10.0 mi SSE 6.9 mph - N/A   Mostly Cloudy
4:53 PM 70.0 °F 61.0 °F 73% 29.91 in 10.0 mi SSE 8.1 mph - N/A   Scattered Clouds
5:53 PM 66.9 °F 61.0 °F 81% 29.91 in 10.0 mi SE 3.5 mph - N/A   Mostly Cloudy
6:53 PM 66.2 °F 60.8 °F 83% 29.89 in 10.0 mi SE 6.9 mph - N/A   Partly Cloudy
7:53 PM 63.0 °F 60.1 °F 90% 29.91 in 10.0 mi SE 5.8 mph - N/A   Clear
8:53 PM 62.1 °F 60.1 °F 93% 29.93 in 10.0 mi SSE 4.6 mph - N/A   Partly Cloudy
9:53 PM 64.0 °F 61.0 °F 90% 29.92 in 10.0 mi SSE 9.2 mph - N/A   Overcast
10:53 PM 64.0 °F 61.0 °F 90% 29.93 in 10.0 mi SE 6.9 mph - N/A   Mostly Cloudy
11:53 PM 64.0 °F 61.0 °F 90% 29.92 in 10.0 mi SE 5.8 mph - N/A   Overcast